Location: ?????
(44.4284°N, 135.2222°E)
Time: 09:22:25
(UTC+00:00)

DELTA 2 R/B (1) - Pass Details

Date: 21 January 2026
Orbit: 786 x 800 km, 39.6° (Epoch: 10 February)

Event Time Altitude Azimuth Distance (km) Brightness Sun altitude
Rises 10:11:00 0° 264° (W) 3,286 8.2 -24.4°
Reaches altitude 10° 10:13:32 10° 259° (W) 2,354 7.1 -24.9°
Maximum altitude 10:18:54 51° 185° (S) 982 4.0 -25.8°
Enters shadow 10:19:29 49° 163° (SSE) 1,009 3.9 -25.9°
